STARLINK-32569, 61867

Orbit data source: Space-Track

STARLINK-32569, 61867 is a payload satellite owned by SpaceX/Seattle (US) in LEO that was launched on Thu, 07 Nov 2024 UTC via an FALCON 9 launch vehicle from the Air Force Eastern Test Range (AFETR). Payload-class satellites include a variety of spacecraft equipped with specific instruments for various scientific and technological missions. These include communications satellites like Starlink; space stations such as the ISS; scientific satellites like the Hubble; Earth observation satellites from companies like Planet Labs, Umbra, and HawkEye 360; GPS; miniature CubeSats for education and research; and military/defense satellites.

Loading next visibility...
Identifier
61867, 2024-202Y
Orbit
LEO
Last TLE update
7 hours ago
Origin
Manufacturer
SpaceX/Seattle
Mission
Operational Commercial Communications
Bus & Motor
STARLINK V2M, Unknown motor
Mass
730 kg wet, ~700 kg dry
Launch date (UTC)
2024-11-07 (8 months ago)
Launch vehicle
FALCON 9
Launch site
Air Force Eastern Test Range (AFETR)
Object type
Payload
Rocket body
Debris
Shape & HBR
Box + 2 Pan, 29 m
Radar Cross Section
33.884 m², Large (>1 m²)

Expand to show TLE details & history

TLE from 7 hours ago
0 STARLINK-32569
1 61867U 24202Y   25187.05644554 -.00001150  00000-0 -32278-4 0  9999
2 61867  42.9999 191.2391 0000874 266.8598  93.2153 15.27571951 38198
Epoch: 2025-07-06T01:21Z
TLE epoch observation values (Epoch: 2025-07-06T01:21:16.894Z)
Latitude
-0.00007°
Longitude
-113.36698°
Altitude
482.882 km
Speed
7.626 km/s
True Right ascension
12h 44m 57s
True Declination
0° 00' 00"
Sunlit
Object was in daylight at epoch
Visualization orbit readout
Latitude
31.645°
Longitude
23.93253°
Altitude
484.374 km
Speed
7.628 km/s
Apparent Right ascension
01h 38m 35s
Apparent Declination
-10° 40' 28"
Sunlit
Object is in full shadow
Visualization observer readout
Local Sidereal Time
20:09:40
Azimuth
103.141° ESE
Elevation
-0.971°
Doppler factor
1
Orbital elements
Apogee altitude
485.618 km
Perigee altitude
484.419 km
Semi-major axis
6,863.155 km
Eccentricity
0.00009
Inclination
42.9999°
RAAN
191.2391°
Arg. of periapsis
266.8598°
True anomaly
Unknown
Mean anomaly
93.2153°
Eccentric anomaly
Unknown
Mean motion
3.81731 °/min
Orbital period
94.31 mins
BSTAR
-0.000032278
Loading maneuver chart data...
Loading SW <> Apogee altitude chart data...
Loading historical data...
Loading historical data...
Loading historical data...
Loading historical data...
Loading historical data...
Loading historical data...
Loading historical data...

STARLINK-32569 Visibility forecast

Observer location: undefined°, undefined°

Span
Click to sort rows by Start time (UTC) header in descending order
Start Az.
Max El. time (UTC)
Max El. Az.
Max El.
End time (UTC)
End Az.
5 mins2025-07-06 09:41:52.584Z267.679° W2025-07-06 09:44:52.584Z196.1° SSW26.536°2025-07-06 09:46:52.584Z155.755° SSE
5 mins2025-07-07 04:17:52.584Z241.866° WSW2025-07-07 04:19:52.584Z109.979° ESE43.744°2025-07-07 04:22:52.584Z73.527° E
5 mins2025-07-07 05:56:52.584Z290.91° WNW2025-07-07 05:58:52.584Z7.343° NNE38.133°2025-07-07 06:01:52.584Z72.59° E
5 mins2025-07-07 07:35:52.584Z293.54° NW2025-07-07 07:37:52.584Z8.415° NNE43.761°2025-07-07 07:40:52.584Z98.961° ESE
|